Theta_e
307 305 300 297 293 295 290 291 289 298 305 313 316 315 316 314 315 315 318 321 324 339 340 343 344 343 342 344 350 351 351 355
305 304 302 296 299 289 291 286 285 292 300 301 308 308 309 308 309 311 314 317 319 324 328 330 332 337 342 345 349 353 354 353
301 297 296 295 294 295 292 290 284 285 296 309 308 305 304 305 306 307 312 316 318 322 325 330 333 335 338 340 343 345 351 355
294 302 305 300 295 294 289 288 290 291 294 310 307 307 306 307 308 309 315 316 318 322 328 328 327 329 333 338 341 343 346 350
293 296 302 297 300 301 295 292 288 288 294 305 304 307 311 311 309 312 318 318 319 325 325 324 325 328 329 333 335 342 343 345
288 293 298 297 300 300 295 290 290 291 294 302 306 308 310 311 313 314 315 315 317 322 324 324 325 324 324 325 327 334 340 342
298 301 301 300 300 300 295 294 290 294 294 298 303 307 308 310 312 311 311 312 316 319 320 321 323 323 324 324 325 326 331 339
296 302 302 299 301 301 300 298 296 297 295 302 307 309 308 310 310 309 309 315 320 321 322 322 323 322 324 324 324 326 326 329
291 300 299 293 298 300 300 300 298 293 298 306 305 307 307 308 309 310 311 314 315 316 319 320 323 324 322 323 326 327 328 329
292 294 286 296 303 303 301 303 304 304 305 306 305 307 308 310 310 310 312 312 313 315 317 318 318 324 326 325 324 324 327 330
288 288 294 300 301 300 297 299 306 304 306 307 309 307 305 312 312 311 312 313 314 315 316 317 316 323 324 323 322 323 325 330
291 286 284 297 305 308 304 293 307 307 306 307 307 299 302 311 313 314 315 315 315 316 315 318 319 325 321 320 320 320 323 326
291 289 295 302 305 307 291 295 308 308 307 306 302 304 307 309 310 314 315 315 318 317 317 318 315 315 315 316 317 320 322 323
291 288 290 305 303 296 303 307 308 307 307 305 304 305 303 305 304 305 307 308 310 311 311 311 310 308 307 308 312 314 316 318
295 294 304 306 307 310 310 307 307 306 305 303 301 300 301 300 300 302 303 305 307 308 307 306 306 305 304 306 307 310 314 314
298 302 303 306 308 312 311 309 308 306 303 301 298 299 299 299 300 300 301 302 303 304 304 303 303 303 304 306 308 309 309 312
300 302 305 308 308 312 311 310 307 305 303 302 298 298 299 299 300 300 301 302 302 302 303 303 304 305 306 307 308 308 313 315
299 305 304 306 310 314 309 306 305 302 301 301 299 298 299 300 302 302 301 302 303 302 302 303 306 305 307 308 310 312 315 318
305 309 308 309 315 314 309 306 305 302 301 299 300 300 301 300 301 303 305 305 304 304 304 303 306 305 307 308 310 311 311 318
Wind_Speed
10 5 4 7 5 6 1 6 4 2 6 8 9 14 17 17 15 12 11 11 13 14 13 14 13 11 6 6 17 16 19 16
6 1 4 3 3 7 6 4 5 4 4 7 7 12 15 14 12 10 10 10 9 9 9 7 6 8 6 7 7 5 10 13
3 5 4 1 4 3 3 4 2 3 5 8 10 13 13 10 10 10 9 9 8 7 8 8 9 8 6 4 5 10 12 19
6 4 7 6 3 3 6 8 2 3 3 7 11 11 10 9 8 7 8 7 7 8 10 8 8 9 10 7 6 10 15 11
7 4 11 4 4 2 1 1 3 5 4 8 10 17 17 18 11 9 9 9 8 8 7 6 7 7 9 10 11 6 11 14
3 2 4 7 10 8 4 3 4 4 1 17 14 16 15 13 10 10 9 9 9 7 6 6 6 6 6 6 6 8 7 10
8 8 7 7 8 9 6 6 1 7 9 9 9 9 8 8 11 13 12 12 9 7 5 5 6 6 6 5 5 5 8 7
5 8 9 8 7 8 8 6 6 7 8 8 9 10 9 9 8 6 8 7 8 7 7 7 5 6 7 6 7 7 9 9
4 8 9 6 5 6 6 13 7 8 4 10 13 13 10 7 10 13 15 10 8 7 7 7 7 7 6 7 6 11 13 12
4 5 3 4 14 13 8 15 14 11 10 8 8 8 8 8 12 12 13 13 10 7 7 7 6 6 5 5 6 9 13 15
2 3 7 5 10 10 6 9 15 12 14 13 13 10 7 16 19 17 15 13 10 8 9 9 8 7 3 4 5 7 12 14
3 2 3 4 8 8 4 2 7 8 11 12 11 8 6 16 16 18 16 15 15 14 9 9 10 6 5 6 6 7 9 13
5 5 3 4 6 4 1 1 8 9 8 8 5 3 10 15 15 16 16 18 17 14 10 8 10 10 9 9 8 9 11 13
3 3 0 6 4 2 5 7 7 8 9 8 7 9 12 13 14 15 16 18 16 12 10 10 10 10 11 12 12 14 15 15
5 2 2 9 8 7 9 8 8 8 8 6 9 12 14 15 14 15 15 14 14 11 10 10 10 10 13 14 14 14 15 16
3 3 4 6 5 9 10 10 10 9 8 9 8 10 12 11 11 11 11 11 13 14 10 12 12 12 12 15 14 14 15 16
2 5 8 14 5 9 12 11 9 9 9 5 4 3 3 5 6 8 9 10 12 13 12 11 12 13 14 15 16 15 15 14
3 7 7 7 7 13 12 10 7 10 7 4 5 5 5 4 5 7 8 7 7 10 14 15 13 14 15 17 15 15 11 6
5 6 8 2 12 8 8 11 10 9 8 8 7 7 7 6 6 12 12 9 8 8 11 15 13 13 16 19 17 15 12 5
Wind_Direction
62 27 59 324 63 252 316 285 37 80 41 45 85 92 88 83 74 66 67 67 87 150 156 170 175 201 90 330 237 227 206 203
135 196 223 181 280 15 351 11 337 22 141 177 116 87 85 76 65 50 51 58 61 74 75 95 96 123 111 22 357 259 241 232
111 202 183 325 348 356 150 135 145 36 307 98 104 101 92 85 79 68 59 60 51 59 72 69 51 41 69 76 325 315 287 223
272 338 94 93 66 78 101 307 349 138 332 76 58 60 80 80 90 84 80 71 65 55 60 46 35 33 29 7 16 339 340 246
310 16 24 25 89 17 336 102 280 110 235 72 56 60 53 45 32 33 48 47 50 64 53 41 31 29 14 15 360 345 354 344
212 304 1 352 343 352 32 54 293 238 254 33 43 60 50 43 35 30 25 26 11 20 47 37 21 11 4 0 2 345 338 337
336 344 335 313 307 310 316 286 271 284 51 58 51 56 52 54 37 21 1 353 12 30 17 12 12 342 337 336 351 343 332 309
320 299 300 322 311 280 233 262 278 356 58 33 55 47 36 30 38 19 330 341 1 8 358 343 327 318 318 326 326 334 324 310
308 333 340 327 282 25 48 70 64 56 30 22 27 20 11 3 16 7 4 352 344 327 318 321 316 299 308 315 333 329 320 309
256 299 267 289 28 47 48 49 48 50 37 34 22 359 354 22 9 358 347 334 318 300 291 285 289 289 309 339 326 318 316 307
86 281 285 42 24 37 50 51 32 27 20 13 4 349 338 9 352 333 322 311 304 298 300 290 281 269 266 303 302 305 310 309
344 348 291 51 41 28 21 124 8 26 26 13 5 343 328 347 341 327 316 316 312 299 277 302 297 325 347 311 294 289 300 304
230 229 123 17 349 337 259 166 44 41 30 12 11 327 327 342 338 335 343 345 332 317 320 326 17 2 342 332 316 312 311 301
351 317 101 349 343 81 158 68 64 47 31 29 7 343 336 338 338 336 335 338 337 349 347 348 3 355 331 313 314 312 302 295
131 163 141 68 76 80 86 82 55 65 49 26 5 357 350 342 341 338 338 330 333 334 337 339 347 344 318 311 304 297 297 292
92 97 56 82 93 98 92 94 83 85 71 48 15 0 3 352 347 344 338 337 333 329 340 341 335 324 308 303 296 292 286 280
114 13 37 17 312 132 103 95 106 96 85 81 69 37 21 323 330 332 331 334 340 335 336 330 329 322 315 316 308 291 277 269
237 196 167 219 169 120 122 133 138 123 132 157 175 212 205 237 273 299 314 329 342 335 342 339 329 315 332 329 325 320 289 255
193 200 213 146 107 106 155 156 146 147 161 173 197 222 252 263 263 284 287 282 297 313 345 340 321 313 346 334 335 333 327 323